Wind_Speed
50 50 51 47 39 40 44 45 47 49 51 56 58 58 57 55 53 53 52 52 50 48 46 44 42 41 40 39 38 37 36 36 34 31 30 29 28 28 28 28 27 27 27 26 23 23 22 21 19 18 17 18 17 17 17 17 16 16 14 13 14 14 14 14 14 14 14 14 13 13 13 14 14 15 15 16 16 16 17 17 17 17 18 19 20 20
47 47 47 44 39 40 46 48 48 49 52 56 58 60 58 56 55 53 53 52 52 50 48 47 46 45 43 41 40 40 38 36 33 32 31 31 31 30 30 29 28 28 27 25 24 23 23 22 20 19 19 19 19 19 19 18 17 16 15 14 15 15 15 15 14 14 14 14 14 14 15 15 16 16 17 17 18 18 19 19 19 20 20 21 22 22
48 45 41 41 41 42 48 52 51 51 54 57 60 62 60 58 56 55 53 53 52 51 49 48 47 45 44 43 43 42 39 36 35 34 34 34 34 32 31 30 30 29 28 26 25 24 24 23 22 20 20 20 20 20 19 18 17 16 16 16 16 16 16 16 16 16 16 15 15 16 16 17 17 17 18 19 19 20 21 21 22 22 22 23 23 24
49 46 42 44 45 45 48 53 55 55 57 59 61 63 62 60 58 56 54 54 53 52 50 49 48 47 47 47 46 44 41 39 38 38 37 37 35 33 33 33 31 30 29 28 26 25 25 24 22 21 21 22 21 20 19 19 18 18 19 18 17 17 17 17 17 18 18 17 17 17 18 18 18 19 20 20 21 22 23 24 24 24 24 25 26 26
47 47 45 46 48 47 49 53 57 59 60 60 62 64 63 61 59 57 55 54 54 54 52 50 50 51 51 50 48 45 42 41 41 40 39 37 35 34 35 33 31 30 30 29 27 26 25 24 24 23 23 22 21 20 20 20 20 20 20 19 19 19 19 19 20 20 19 19 19 19 20 20 20 21 22 22 23 24 25 26 26 26 27 27 28 29
46 45 44 46 48 49 51 53 56 60 61 61 63 65 63 62 61 58 56 56 56 56 54 52 54 53 52 51 49 45 44 43 42 42 39 37 36 36 35 33 32 31 30 29 27 26 26 25 25 24 23 22 21 22 22 22 22 21 21 21 21 21 22 22 22 22 21 21 21 21 21 22 22 23 24 24 25 26 27 28 28 29 29 30 31 31
49 46 43 45 46 47 51 54 54 58 62 62 64 65 64 63 62 60 58 57 58 57 55 54 56 54 52 52 50 47 46 45 44 43 40 38 39 37 35 34 33 31 30 29 29 28 27 27 26 25 24 24 24 24 24 23 23 23 23 23 23 23 24 24 24 23 23 23 23 23 23 24 24 25 26 26 27 28 29 30 30 31 32 32 33 34
50 50 46 43 43 44 50 53 52 56 60 62 64 65 64 64 63 61 59 58 58 57 55 55 56 56 54 54 52 50 49 47 45 44 41 40 39 36 35 35 33 32 32 31 30 29 29 29 28 27 26 26 26 25 25 24 25 25 25 25 24 25 25 25 25 25 25 25 25 25 25 26 26 27 28 28 29 30 31 32 32 33 34 35 36 36
50 54 51 46 42 41 46 50 51 55 60 62 65 67 65 64 63 60 58 58 57 57 57 57 58 59 57 54 53 52 51 48 46 43 42 40 38 36 35 36 35 34 34 33 32 31 31 31 30 29 28 27 27 27 26 26 26 26 26 26 26 26 26 26 27 27 27 27 26 26 27 27 28 29 30 30 31 32 32 33 34 35 36 37 37 38
47 51 53 52 47 40 42 49 52 57 62 64 68 68 65 64 63 59 57 56 57 59 60 59 58 60 59 54 53 54 51 49 46 43 41 40 39 38 37 37 36 35 35 34 33 33 32 32 31 30 29 29 28 28 28 27 27 27 27 27 27 27 28 28 28 28 28 28 28 28 28 29 30 31 31 32 32 33 34 35 36 36 37 38 39 40
43 45 48 51 50 43 44 51 53 58 64 67 69 69 65 64 62 59 58 57 58 61 61 59 59 60 59 56 54 54 52 49 46 44 42 42 41 39 38 37 37 36 36 35 35 34 33 32 31 31 30 30 29 29 28 28 28 28 28 28 28 28 28 29 28 28 28 28 29 29 30 31 31 32 33 33 34 35 35 36 37 38 38 39 40 41
41 42 43 45 47 45 46 51 54 59 67 69 70 69 66 63 62 60 59 59 62 65 63 60 60 61 61 58 54 54 54 50 48 47 45 44 42 40 39 38 38 38 37 36 36 35 33 33 32 32 32 31 30 30 29 29 29 29 28 28 28 28 28 29 29 28 28 29 29 30 31 32 32 33 34 34 35 36 36 37 38 39 40 41 42 42
42 42 42 43 44 44 45 50 56 62 69 72 71 70 67 65 64 63 62 63 65 66 63 61 61 63 64 60 55 54 54 52 49 47 46 45 43 42 41 40 40 39 38 37 36 35 34 34 34 34 33 32 32 31 31 30 29 29 29 29 29 29 29 29 29 29 29 29 30 31 31 32 33 34 34 35 36 37 38 38 39 40 41 42 43 44
44 43 44 44 44 43 42 47 54 61 68 71 72 73 72 70 68 67 66 66 66 66 65 63 62 64 65 61 56 55 53 52 50 47 46 45 44 43 42 41 41 40 39 38 37 36 36 36 35 35 34 33 33 32 31 31 30 30 30 30 30 30 29 29 29 29 30 30 31 31 32 33 34 35 35 36 37 38 39 39 40 42 43 44 45 45
39 41 43 44 45 43 42 43 48 58 66 69 72 74 74 73 71 68 67 66 66 67 66 65 64 66 67 62 58 56 53 51 49 47 46 45 44 43 43 42 42 41 40 39 39 38 38 38 37 36 35 34 33 33 32 32 31 31 31 31 31 30 30 30 29 30 30 31 31 32 32 33 34 35 36 37 38 39 40 41 42 44 45 46 46 47
34 35 36 39 42 43 42 42 47 59 68 71 73 74 73 72 69 65 63 62 63 65 66 67 66 67 67 63 57 54 53 50 47 47 46 45 44 43 43 43 43 42 42 41 40 40 40 39 38 37 36 35 34 33 33 33 32 32 32 32 31 31 30 30 30 30 31 31 32 32 33 34 35 36 37 38 39 40 41 43 44 45 46 47 48 49
33 33 34 36 39 40 41 44 50 60 69 73 73 75 75 72 68 62 61 61 61 64 67 68 67 67 66 63 57 53 53 50 47 46 46 45 45 44 43 43 43 43 43 42 42 41 40 40 39 38 37 36 35 35 34 34 34 34 33 33 32 32 31 31 31 31 32 32 32 32 33 34 35 37 38 39 40 41 42 44 45 46 47 48 49 50
32 32 34 36 38 39 41 46 53 61 69 72 73 75 74 69 66 64 63 62 62 65 69 69 68 67 66 64 59 55 53 51 47 46 45 45 44 43 43 43 43 44 44 44 43 42 42 41 40 39 38 38 37 36 36 35 35 35 35 34 34 33 33 33 32 32 32 32 33 33 34 35 36 38 39 40 41 42 44 45 46 47 48 50 50 51
33 33 34 36 37 39 41 47 54 61 68 72 73 73 70 66 67 68 66 66 65 67 70 70 69 69 68 66 60 55 52 51 48 46 45 45 44 44 44 45 45 45 45 45 44 44 43 42 41 41 40 39 38 38 37 36 36 36 36 35 35 34 34 34 34 34 34 34 34 35 35 36 38 39 40 42 43 44 45 46 47 48 50 51 51 52
35 35 36 36 37 38 41 45 50 57 65 70 72 72 70 67 67 67 67 68 67 67 69 70 70 70 68 65 59 53 51 51 49 47 45 45 45 46 46 46 46 46 45 45 44 44 44 43 43 42 42 41 40 39 38 37 37 36 36 36 36 35 35 35 35 35 35 35 36 36 37 38 40 41 42 43 44 45 46 47 48 50 51 52 52 52
35 36 37 37 38 39 41 41 45 53 62 68 72 73 72 71 70 68 67 68 67 67 67 68 69 69 67 62 57 51 50 51 51 49 47 46 46 46 47 47 47 46 46 45 45 44 44 44 44 43 43 42 41 40 39 38 38 37 37 37 36 37 37 37 37 36 36 37 37 38 39 40 42 43 44 45 46 46 47 48 49 51 51 51 51 51
37 37 38 38 38 39 39 41 46 54 60 66 71 73 73 73 71 69 68 69 69 68 67 67 68 68 65 60 55 50 48 49 50 49 48 47 46 45 46 47 47 47 46 46 46 46 45 45 45 45 44 44 43 42 40 39 39 38 38 38 38 38 38 37 37 38 38 38 39 40 41 42 43 44 45 46 47 47 48 49 50 51 51 51 51 51
36 37 38 38 38 38 38 42 47 52 57 64 69 73 73 71 70 69 69 70 69 68 67 66 67 67 64 59 54 50 47 46 48 48 48 47 47 46 46 46 46 46 46 47 47 47 47 47 46 46 45 44 43 42 41 40 39 39 39 39 39 39 39 39 39 39 40 40 41 42 43 44 44 45 46 46 47 48 49 50 51 51 51 51 52 52
36 36 38 38 38 37 38 42 46 51 56 61 66 70 73 73 71 69 69 68 66 66 66 65 66 66 62 58 54 50 46 44 44 46 47 48 47 46 46 45 45 45 45 46 47 47 48 48 47 47 46 45 44 42 41 41 40 40 40 40 40 40 40 40 41 41 42 42 43 44 45 45 46 46 47 48 49 50 50 51 51 51 51 52 52 53
35 36 37 38 38 40 41 42 44 48 52 56 61 67 72 74 71 67 66 65 63 65 65 65 68 67 61 58 54 49 46 44 43 43 44 46 46 45 45 45 45 46 46 46 46 46 46 47 47 46 45 44 44 43 42 42 41 41 41 41 41 41 42 42 42 43 44 45 46 46 46 46 47 47 48 49 50 51 52 52 52 52 53 53 53 54
32 33 34 35 36 37 35 35 38 44 50 55 60 66 70 72 70 67 66 65 66 68 67 68 70 67 60 57 54 49 47 44 42 42 42 42 44 44 44 44 45 46 47 47 47 47 46 46 45 44 43 43 42 42 42 42 42 42 42 42 42 43 43 44 44 45 46 47 47 47 47 47 47 49 50 51 52 52 53 53 53 54 54 54 54 55
31 32 31 31 31 29 28 31 33 38 46 53 57 62 66 69 69 67 66 66 68 69 69 70 70 65 59 56 51 47 46 44 41 41 40 40 42 43 44 45 45 45 45 45 46 46 45 45 43 42 42 41 41 41 42 42 42 42 42 43 43 44 44 45 46 47 47 47 47 46 47 48 49 50 52 53 54 54 55 55 55 55 55 55 55 56
32 31 30 30 30 29 29 30 31 33 39 44 50 57 61 63 64 64 64 66 66 67 70 71 68 64 61 55 49 44 43 41 40 39 40 40 41 42 44 44 44 43 44 44 43 43 43 43 42 42 42 42 42 42 42 42 42 42 43 43 44 45 46 46 47 47 47 47 47 47 48 50 52 53 54 55 56 57 57 57 57 57 56 57 57 58
33 32 30 30 31 32 32 32 33 34 36 39 44 51 55 57 58 59 62 64 63 65 69 69 66 66 63 54 46 42 40 41 42 43 42 41 41 41 41 42 42 42 42 42 41 41 41 41 42 42 43 43 43 43 43 43 43 43 44 45 45 46 47 47 47 47 47 47 48 50 52 53 54 55 56 57 57 58 59 59 58 58 59 59 60 61
35 34 33 33 33 34 34 34 34 35 37 38 42 46 50 53 55 56 59 60 61 64 68 66 64 67 64 55 49 46 45 47 48 46 45 42 40 39 39 40 41 41 41 41 40 41 41 42 42 42 42 42 42 43 43 43 44 45 46 47 48 48 48 48 48 48 49 50 52 53 54 55 56 56 57 58 58 59 59 59 60 61 61 62 63 63
37 37 37 36 36 37 36 36 36 37 37 39 41 43 47 51 55 58 60 62 63 66 67 66 67 70 66 58 53 50 50 51 49 45 43 41 40 40 40 40 40 41 41 41 41 42 42 42 42 42 42 43 43 44 45 46 47 48 49 49 50 49 49 49 49 50 52 53 54 55 55 56 57 57 58 59 59 60 60 61 62 63 64 64 65 65
40 41 40 39 40 39 37 37 38 37 38 41 43 43 45 48 52 55 58 61 63 65 65 66 68 69 64 57 53 51 51 50 47 44 43 42 42 43 42 42 42 42 42 43 43 44 43 44 44 44 45 46 46 47 48 49 50 50 50 50 50 50 50 51 52 53 54 54 55 55 56 57 58 59 59 60 61 62 63 63 64 65 65 66 67 68
41 41 40 40 41 40 39 38 38 39 42 42 39 38 41 44 46 49 52 54 56 59 61 62 63 62 56 51 50 52 52 50 48 46 46 45 46 46 45 45 44 44 45 46 46 46 46 46 46 47 47 48 49 50 50 51 51 51 51 51 51 52 53 53 54 54 55 55 56 56 58 59 59 60 61 62 63 63 64 64 65 66 67 68 69 70
40 40 40 39 39 40 40 38 39 43 43 36 31 33 38 40 41 43 44 45 47 49 51 53 53 51 48 47 48 51 52 50 49 49 49 50 50 49 48 47 47 47 47 48 49 49 48 48 48 48 48 49 49 50 51 51 51 51 52 53 53 54 54 54 55 55 56 57 57 58 59 60 61 62 63 63 64 64 65 66 67 68 69 70 72 73
38 38 39 39 39 40 40 41 44 44 38 31 31 35 37 38 38 39 40 41 42 43 44 45 46 45 44 44 45 48 49 50 50 51 51 52 51 50 50 49 49 49 49 50 49 49 49 49 49 50 51 51 51 52 52 52 53 53 54 54 55 55 56 56 56 57 57 58 58 59 61 62 62 63 64 64 65 66 67 68 69 70 72 73 73 73
42 43 43 42 43 43 43 45 44 38 32 31 33 34 35 36 37 38 40 40 40 42 42 41 40 41 41 41 42 44 47 49 51 51 51 51 51 50 50 50 50 50 50 50 49 49 50 51 51 52 53 53 54 54 54 54 54 55 55 56 56 56 56 57 57 58 58 59 60 61 62 63 63 64 65 66 67 68 69 70 71 72 73 72 72 71
43 44 45 46 46 45 46 45 41 37 35 33 32 31 32 34 36 39 41 40 39 41 41 38 37 38 39 40 42 45 48 51 53 51 49 49 50 50 51 51 51 51 50 50 51 51 51 52 52 53 53 54 54 55 55 55 56 56 56 56 56 56 57 57 58 59 60 60 61 62 63 64 65 66 67 68 69 70 71 71 72 71 71 70 69 69
42 43 43 45 45 44 45 43 42 42 37 32 31 31 32 35 37 40 43 42 39 39 38 37 36 38 39 41 45 48 51 54 54 49 46 48 50 50 51 52 52 52 51 52 52 52 52 52 52 53 53 54 54 54 55 55 55 56 56 56 57 57 58 59 60 61 62 62 63 64 65 66 67 68 69 69 70 71 71 71 70 69 68 68 68 69
42 42 42 43 45 45 45 44 44 41 35 31 32 34 36 38 37 40 44 41 35 35 36 36 36 38 41 44 46 48 50 52 50 44 44 48 51 51 52 53 53 53 53 53 53 53 53 53 53 53 53 53 54 54 55 55 56 57 57 58 59 60 61 62 63 64 65 65 66 66 67 68 69 69 69 70 70 69 69 68 67 67 67 67 68 68
41 41 42 43 44 44 44 45 44 40 35 34 35 36 39 40 39 43 44 37 33 34 37 38 41 43 44 46 47 48 48 48 46 44 46 49 51 52 53 53 53 54 54 54 54 54 54 54 54 54 54 54 55 56 57 57 58 59 60 62 63 64 65 65 66 66 67 67 67 68 68 68 68 68 68 67 67 66 66 66 66 66 67 67 67 67
43 43 43 43 42 42 43 43 43 39 35 35 36 37 39 40 43 45 41 34 35 36 37 41 45 45 45 46 47 47 48 47 47 48 50 51 51 52 53 53 53 54 54 54 55 55 55 55 55 56 56 57 57 58 59 60 61 62 63 64 65 66 66 66 66 66 66 66 66 66 66 66 65 65 65 65 65 65 66 66 66 66 65 65 65 65
44 44 44 43 43 42 41 41 41 39 35 36 39 40 40 40 42 40 34 34 37 38 39 43 44 43 46 48 48 49 49 49 50 51 52 53 53 53 54 54 54 54 55 56 56 56 57 57 57 58 58 59 60 60 61 62 62 63 63 63 63 63 63 63 63 63 63 63 63 63 63 64 64 64 65 65 65 65 65 65 64 64 63 63 64 64
44 43 44 43 43 42 42 43 43 39 35 35 40 43 42 39 36 33 31 33 36 38 41 43 43 43 46 47 48 50 50 51 51 52 53 54 55 55 56 56 56 56 57 57 58 58 59 59 60 60 61 61 61 62 62 61 61 60 60 59 59 59 59 60 60 60 61 61 62 62 63 64 64 64 64 64 64 64 63 62 62 62 62 63 64 65
45 44 44 44 44 45 46 45 43 39 37 37 39 42 42 38 35 35 36 36 37 39 42 44 44 44 43 44 47 49 49 51 52 52 54 55 55 56 57 57 58 58 59 59 60 60 61 61 61 62 61 61 61 60 60 59 58 58 57 57 57 57 58 58 59 60 60 61 62 63 63 63 63 63 63 62 62 61 61 61 61 62 63 64 65 66
45 44 43 44 45 46 45 42 41 40 41 42 43 45 45 42 41 41 41 40 40 42 43 45 46 46 44 44 45 46 48 50 50 51 53 53 54 55 56 57 58 58 58 59 59 60 60 61 61 61 60 60 59 58 58 58 57 58 57 57 58 58 59 60 60 61 61 62 62 63 62 62 62 61 61 61 60 60 60 61 62 63 65 66 67 68
44 44 44 45 45 46 45 43 42 42 43 44 46 48 49 48 46 45 44 43 43 43 44 46 48 48 48 47 47 47 48 49 49 51 52 52 53 54 55 55 56 56 57 57 58 58 59 59 59 59 59 58 58 58 58 58 58 58 59 59 60 60 61 61 61 61 61 61 61 61 61 60 60 60 59 59 59 60 61 62 64 65 66 67 68 69
46 46 47 47 48 49 47 45 44 45 46 47 48 50 51 51 50 49 48 48 47 46 46 47 48 50 51 51 50 50 50 50 51 52 53 53 54 54 54 55 56 56 57 57 57 58 58 58 58 59 58 59 59 59 59 59 59 60 60 60 61 61 60 60 60 60 59 59 59 59 58 58 58 58 58 59 60 61 63 64 65 66 67 68 69 70
47 48 49 49 50 51 49 47 47 49 49 49 50 52 53 53 53 52 52 52 51 50 50 50 51 52 53 53 54 53 52 52 53 53 54 55 54 54 55 56 57 57 58 58 59 59 59 59 60 60 59 60 60 60 60 59 59 59 59 59 58 58 58 58 57 57 57 57 57 57 56 57 57 58 59 61 62 63 64 65 67 68 69 70 71 72
51 51 51 51 52 52 51 50 50 51 51 51 52 53 54 54 54 54 53 53 52 52 52 52 53 53 54 55 55 55 54 53 53 53 53 54 55 56 57 57 58 59 59 60 61 61 61 61 61 60 59 59 58 57 57 57 56 56 56 56 56 56 57 57 57 57 56 56 56 56 57 58 59 60 61 63 64 65 66 67 69 70 71 72 73 74
54 54 53 53 54 53 51 50 51 52 53 53 53 54 55 56 55 55 55 55 55 54 54 54 55 55 56 56 55 55 54 54 53 53 53 53 54 55 56 56 58 58 58 59 60 60 60 59 59 58 57 56 55 55 54 54 55 55 55 56 56 56 56 56 56 56 56 56 56 57 59 60 61 62 64 65 66 68 69 70 71 72 73 74 74 75
54 54 53 53 53 51 50 50 52 53 54 54 55 57 58 58 58 57 57 57 57 56 56 56 56 56 56 56 55 54 53 53 53 53 53 53 54 54 55 55 55 55 55 56 56 56 56 56 55 55 55 55 55 55 55 55 55 55 55 55 55 55 55 55 55 55 56 57 58 60 61 62 64 65 66 68 69 70 71 72 73 74 74 75 75 76
Wind_Direction
230 234 236 235 236 231 223 221 219 217 218 219 216 214 215 214 212 211 209 210 212 211 210 209 209 211 212 211 211 212 212 212 212 210 209 209 211 211 210 208 208 210 211 210 212 217 222 225 227 228 229 231 232 233 236 238 241 245 249 251 253 256 257 258 260 264 267 268 269 269 268 267 266 266 269 272 275 277 277 277 277 277 276 277 278 280
227 233 237 236 235 230 223 222 221 218 219 219 215 213 214 214 214 213 211 210 211 211 210 209 209 210 212 213 214 214 213 214 214 213 212 211 212 213 214 214 213 216 216 216 219 223 227 230 230 228 228 231 232 232 236 239 242 246 248 249 250 253 255 257 261 263 264 265 266 266 265 265 264 265 268 270 273 274 275 275 275 275 276 278 280 282
227 231 233 230 231 231 225 222 222 220 219 219 215 213 213 213 214 214 212 211 212 211 211 211 211 212 214 214 215 215 214 215 216 216 215 215 214 214 216 218 219 221 221 221 225 227 229 232 231 228 227 230 234 235 238 240 243 245 245 247 249 251 254 258 260 260 261 262 262 263 264 265 265 266 268 269 272 273 275 275 276 277 278 279 281 283
229 230 232 229 230 232 226 222 221 219 218 218 214 212 213 213 213 214 213 212 212 212 212 213 213 214 216 216 216 216 214 216 218 218 218 218 217 217 218 221 223 225 227 226 227 229 230 232 232 229 228 231 235 237 238 240 242 244 246 248 250 253 255 257 258 259 260 261 261 262 263 265 265 266 267 269 271 272 274 275 276 278 279 281 282 283
227 229 231 231 233 232 226 220 219 218 217 218 214 211 213 213 213 213 212 213 213 213 213 214 215 215 217 218 216 216 216 217 220 220 221 220 219 221 222 223 225 227 229 230 230 230 231 233 233 232 233 235 237 238 239 240 242 245 248 250 251 254 255 257 258 260 261 262 262 262 263 264 265 266 268 269 270 271 272 273 275 277 279 280 282 283
223 224 224 227 230 230 224 218 217 217 216 217 214 211 212 213 213 213 211 212 214 214 213 215 217 216 217 220 219 217 217 219 223 224 223 222 221 223 225 225 226 227 229 231 231 231 232 234 235 237 239 238 238 239 240 242 244 246 248 250 251 253 255 257 259 260 262 263 263 264 265 266 267 268 269 270 271 271 272 274 276 278 279 280 282 283
221 222 220 222 225 225 223 218 216 215 215 216 214 211 212 213 213 213 212 212 213 214 215 216 219 218 217 221 221 219 219 220 224 226 224 223 223 224 225 227 227 227 229 231 232 232 233 234 236 237 238 240 240 242 244 245 246 246 247 249 250 252 254 257 259 261 262 262 263 264 266 267 269 270 271 272 272 273 274 276 277 279 280 281 282 283
222 224 222 220 222 224 222 219 218 217 216 217 214 211 212 214 214 213 212 213 214 216 217 218 221 220 218 220 222 221 221 220 223 226 226 225 226 225 226 227 227 227 228 230 231 232 234 235 236 236 237 239 242 244 246 247 248 248 249 250 251 254 256 258 260 261 262 263 264 265 266 268 269 271 272 273 273 274 276 277 278 279 281 282 282 283
225 227 227 226 228 229 224 219 220 219 218 217 213 210 212 215 215 214 213 214 215 217 218 218 221 222 219 219 222 223 223 222 223 226 227 227 227 226 226 227 227 226 227 229 230 231 234 236 237 237 238 239 241 243 244 246 248 250 252 253 255 256 258 259 261 262 264 265 266 267 268 268 269 271 272 273 274 275 276 277 278 279 280 281 282 283
226 229 231 232 234 235 227 221 220 220 219 217 212 210 213 215 216 214 213 215 217 218 218 218 221 224 222 219 222 225 225 225 225 226 228 229 228 227 226 227 227 227 228 229 231 232 233 236 238 240 241 241 242 242 243 245 247 249 252 253 255 257 258 260 262 264 266 268 269 269 269 269 270 271 273 273 274 275 276 277 278 278 279 281 282 283
223 227 231 233 235 235 228 222 220 219 218 215 211 210 213 215 217 215 212 213 217 219 218 218 222 226 225 220 221 226 226 226 226 226 226 228 229 228 227 228 229 230 230 230 232 233 235 237 239 241 243 243 244 245 245 246 247 248 250 251 253 255 258 261 263 266 268 270 271 271 271 271 271 272 273 273 274 275 276 277 277 278 280 281 282 283
222 225 228 230 231 231 226 222 221 219 217 214 210 210 213 215 216 216 213 213 216 218 217 219 223 226 227 222 221 226 227 227 226 226 226 226 227 228 228 228 229 230 231 233 234 236 237 238 239 241 242 243 245 246 247 248 248 249 251 252 254 256 258 260 263 266 268 269 270 270 271 272 272 273 273 274 275 276 277 277 278 280 280 281 282 283
224 226 227 227 227 228 226 223 221 218 217 213 209 209 212 215 216 215 214 214 216 218 217 219 223 227 227 224 222 225 228 228 228 227 227 227 226 228 229 230 231 232 233 235 237 238 239 239 240 241 242 243 244 245 247 248 250 251 253 254 256 257 259 261 264 266 267 268 269 270 272 273 273 274 275 276 277 277 278 279 280 281 282 282 283 285
227 227 227 227 227 228 228 226 223 220 218 217 213 211 212 215 216 216 215 215 216 218 218 219 223 227 228 226 224 225 227 229 230 229 229 230 229 229 230 231 233 235 236 237 238 239 239 239 240 241 243 244 245 245 246 248 249 251 253 255 257 259 261 263 265 266 267 269 270 272 273 274 275 276 277 277 278 279 280 281 282 283 284 285 286 286
227 229 230 230 229 230 230 229 227 224 221 219 217 214 214 216 217 217 217 216 217 218 219 220 222 226 228 228 225 226 228 228 230 231 231 232 233 233 233 233 234 235 237 238 239 239 239 238 239 240 242 245 247 248 248 249 249 250 252 254 257 260 262 264 266 267 269 270 272 273 275 276 277 277 278 279 280 281 282 283 284 285 285 286 287 287
224 227 229 231 231 231 230 227 226 223 218 216 214 212 214 217 218 218 219 218 218 220 221 222 223 226 229 230 227 228 230 229 229 231 232 233 234 236 237 237 236 237 237 239 240 241 241 241 241 242 243 245 247 249 250 250 251 251 253 255 257 260 263 265 266 268 269 271 273 274 275 276 277 278 279 280 281 282 283 284 284 284 285 286 287 288
225 225 225 226 228 230 230 228 225 222 217 215 213 212 214 217 217 218 219 218 218 220 222 223 225 227 230 232 229 228 231 231 230 230 231 233 234 236 238 240 241 240 240 240 241 242 243 244 245 245 246 247 248 249 250 251 252 253 255 257 259 261 263 265 266 268 269 271 272 274 275 276 277 279 279 280 281 282 283 283 284 285 286 287 287 288
227 229 228 227 226 227 229 228 225 222 218 215 213 213 214 214 216 217 217 218 218 220 222 223 225 227 230 232 230 227 229 232 231 229 230 232 234 236 238 241 242 243 243 243 243 243 244 245 246 247 248 249 249 250 251 252 253 254 256 258 260 262 263 265 266 268 269 271 273 275 276 277 278 279 280 281 282 282 283 283 284 285 286 286 287 287
224 227 229 230 230 229 229 229 226 223 219 216 214 213 212 212 215 216 216 217 218 220 222 223 225 226 229 232 231 229 229 231 233 232 230 231 233 235 238 239 241 243 244 245 245 245 246 246 247 248 249 250 251 252 253 254 255 256 257 259 261 263 264 265 266 268 269 271 273 275 276 278 279 280 281 281 281 282 282 283 284 284 284 285 285 285
221 224 226 228 230 231 231 230 229 227 223 220 216 213 211 213 216 217 217 218 219 221 223 224 225 226 228 232 233 230 230 231 233 234 233 232 233 234 237 239 241 243 245 246 247 248 248 249 249 250 251 252 253 254 255 256 257 258 259 260 262 263 264 265 265 267 268 270 272 274 276 278 279 280 280 280 280 281 281 282 282 283 283 283 283 284
223 223 224 225 227 230 232 233 233 230 227 223 219 216 214 214 216 217 217 218 219 222 223 225 227 227 228 231 234 233 231 232 233 234 235 235 235 236 238 240 242 243 245 247 248 249 249 250 250 251 252 253 254 255 256 258 259 260 260 261 262 263 263 263 264 266 268 270 272 275 277 279 279 279 279 279 280 280 281 282 282 283 283 283 283 284
223 224 224 225 226 229 231 232 231 229 227 225 221 219 217 216 216 217 217 217 219 221 224 226 227 227 228 230 234 235 233 233 234 235 236 238 239 240 240 241 243 244 246 247 248 249 250 250 251 251 252 254 255 256 258 259 260 261 262 263 263 263 263 264 265 267 269 271 274 276 277 278 278 278 279 279 280 281 282 282 283 283 283 283 283 284
226 225 224 224 225 228 230 231 230 229 228 226 223 220 217 216 216 218 219 218 219 222 224 226 227 228 228 229 233 236 235 234 234 235 237 239 241 242 243 244 245 245 247 248 248 250 250 251 252 253 254 255 256 257 259 260 261 262 263 263 263 264 264 265 266 268 271 273 275 276 276 277 278 278 279 280 281 282 282 283 283 283 283 283 283 284
228 227 226 224 223 224 226 228 230 230 229 228 226 223 220 218 217 218 219 219 220 223 225 227 228 228 228 229 231 235 236 236 236 236 238 240 242 244 245 245 246 247 248 248 249 250 251 252 253 254 256 257 258 260 261 262 263 263 263 263 264 264 265 266 268 270 273 274 275 276 276 277 278 279 280 280 281 281 282 282 282 282 282 282 282 283
230 229 228 226 225 223 223 224 227 229 230 230 230 227 223 220 218 218 219 219 221 223 224 226 228 228 229 230 231 234 235 236 236 237 238 240 242 245 246 247 247 248 249 250 250 251 251 252 254 255 256 258 259 261 262 263 263 263 264 264 264 265 266 268 270 272 273 274 274 275 275 276 277 279 280 280 280 281 281 281 281 281 281 281 281 282
235 234 232 232 231 230 232 237 237 233 228 227 227 226 224 221 219 218 219 220 221 222 223 225 226 227 229 231 232 234 234 235 236 237 238 240 242 244 246 248 248 249 250 251 252 253 253 254 255 256 257 258 259 260 261 261 262 262 263 263 264 266 267 269 270 272 272 273 273 274 275 276 278 279 279 280 280 280 280 280 280 279 280 280 281 282
233 233 232 234 236 238 246 253 251 241 233 230 228 226 224 222 221 221 221 221 222 223 224 225 226 227 229 231 233 234 234 236 237 238 239 240 242 243 245 247 249 249 250 251 252 253 254 256 257 258 259 260 260 260 260 260 260 261 262 263 265 266 267 269 270 271 271 272 273 274 276 277 278 279 279 280 280 280 280 279 279 279 280 281 283 285
229 229 228 229 232 235 239 243 244 241 238 236 234 230 226 225 224 223 224 224 224 225 225 225 226 228 229 231 234 235 236 238 238 239 240 241 242 244 245 247 248 249 250 251 252 253 255 256 258 259 260 261 261 261 261 261 261 262 263 264 265 266 267 268 269 270 272 273 274 275 276 278 278 279 279 279 279 279 279 279 279 280 282 283 285 287
228 228 228 230 232 234 235 234 232 232 231 231 231 230 228 227 228 229 230 229 229 229 229 228 229 230 230 232 235 237 238 239 239 239 240 241 243 245 246 248 249 249 250 252 253 255 256 257 258 259 259 259 260 260 261 262 263 263 264 264 265 266 267 268 269 270 272 273 274 276 277 278 279 279 278 278 278 278 279 279 280 282 283 285 287 288
226 226 227 228 230 232 232 232 230 229 229 228 227 226 225 226 228 230 231 232 233 234 233 231 232 232 232 234 236 237 239 239 240 241 242 243 245 246 247 248 249 250 252 253 254 255 256 257 257 258 258 259 260 261 261 262 262 263 263 264 265 265 266 267 269 270 272 274 275 277 278 278 278 277 277 277 278 278 279 281 282 284 285 286 287 288
224 226 227 227 227 228 228 228 228 228 228 228 227 226 226 226 227 229 230 231 232 233 233 232 232 232 233 235 237 239 241 242 244 245 246 247 248 248 249 249 250 251 253 253 254 254 255 256 257 258 259 260 260 261 261 261 261 262 263 263 264 265 267 269 270 272 274 275 276 277 277 277 277 277 277 278 279 280 281 283 284 285 286 287 288 289
224 226 228 227 228 228 227 227 227 227 228 229 228 228 229 230 232 233 233 233 234 235 235 235 236 235 236 238 240 243 245 247 248 250 251 251 251 251 250 250 251 253 254 255 255 255 255 256 257 257 258 258 259 260 260 260 261 261 262 263 265 267 269 271 273 274 275 276 276 276 276 276 277 277 278 279 280 281 283 284 285 286 287 288 289 290
225 227 229 230 231 232 231 230 228 228 231 231 230 231 233 234 235 235 235 235 237 239 240 241 242 242 240 241 243 245 248 249 250 251 251 250 249 249 248 249 250 251 253 255 256 256 256 256 255 256 256 257 257 258 259 259 261 262 263 265 267 269 270 272 273 274 275 275 275 276 276 276 277 278 279 280 281 282 283 285 286 287 288 289 290 291
228 228 230 231 232 234 235 233 230 231 233 234 233 235 237 238 238 239 240 241 241 242 243 243 244 243 242 241 241 243 246 248 248 247 247 248 248 248 248 249 250 250 251 252 253 254 255 255 256 256 256 257 257 257 258 259 261 262 264 266 268 269 271 272 273 274 274 275 275 276 276 277 277 278 279 280 281 283 284 285 286 287 288 289 290 291
231 233 233 233 233 234 234 233 232 234 236 236 236 236 238 240 241 242 242 242 242 242 242 241 240 240 241 240 238 240 243 245 246 245 246 248 249 250 251 252 252 252 252 252 252 253 254 255 255 256 256 257 257 258 259 261 263 264 266 268 269 271 272 273 274 275 275 275 276 276 276 277 278 279 280 281 282 283 284 285 286 287 288 289 290 291
226 228 230 232 233 233 234 234 235 238 241 241 240 239 240 242 244 245 245 243 243 244 245 243 242 243 243 242 242 242 243 245 246 246 247 249 250 252 254 255 255 255 255 255 255 255 255 255 255 256 257 258 259 260 262 263 265 267 268 269 271 272 273 274 274 275 275 275 275 276 277 278 279 280 281 282 283 284 285 286 287 288 289 290 290 291
227 228 229 231 233 234 236 238 241 244 242 239 239 240 240 244 246 248 249 248 246 247 249 249 249 249 250 249 248 247 247 247 247 247 249 252 254 255 256 256 257 257 257 257 257 256 256 257 257 258 259 260 261 263 264 265 267 268 269 271 272 272 273 274 274 274 275 275 276 277 278 279 280 281 282 283 284 285 285 286 287 288 289 290 290 291
230 232 234 237 239 240 241 242 245 245 239 234 237 239 241 243 244 246 249 247 244 246 249 250 250 251 252 252 251 250 250 250 249 249 252 255 256 255 255 256 256 257 257 257 257 258 258 258 259 259 260 261 263 264 266 267 268 269 271 271 272 273 273 273 274 275 275 276 277 277 278 279 280 281 282 283 284 285 286 287 287 288 289 289 290 290
226 230 233 236 239 241 243 244 245 244 238 235 240 243 246 246 245 248 250 246 241 245 249 248 248 250 251 252 252 253 253 253 253 253 254 255 255 255 255 255 255 256 257 257 258 258 259 259 260 261 262 263 264 265 266 267 268 270 271 272 272 273 273 274 274 275 275 276 277 278 278 279 281 282 282 283 284 285 286 286 287 287 288 288 289 289
223 225 228 231 235 238 240 243 245 245 241 241 243 246 249 251 249 250 249 243 239 243 246 248 249 250 251 252 254 255 256 256 256 256 255 255 255 256 256 256 256 257 257 258 259 260 260 261 262 262 263 264 264 265 266 267 268 270 271 271 272 273 273 274 274 274 275 276 277 278 279 280 281 282 282 283 284 284 285 285 286 287 287 288 288 289
225 226 228 231 235 238 239 242 246 247 247 248 250 250 250 249 249 249 249 249 249 247 247 249 251 251 252 254 254 255 256 256 255 255 256 257 257 257 258 258 259 259 259 260 260 261 261 262 262 263 263 264 265 266 267 268 269 270 271 271 272 272 273 273 273 274 275 276 277 278 279 280 281 281 282 282 283 284 284 285 286 286 287 287 288 289
228 229 231 232 235 238 240 242 245 246 246 249 251 252 248 246 249 254 256 257 257 253 250 251 251 249 251 253 253 253 254 254 254 255 256 258 259 259 259 260 260 261 261 262 262 262 263 264 264 265 265 266 267 268 269 270 271 272 272 272 272 273 273 273 274 275 276 277 278 278 279 280 280 281 281 282 282 283 284 285 285 286 287 288 289 291
233 234 236 236 237 239 241 241 243 246 247 248 250 252 252 251 253 256 254 253 252 251 252 253 251 248 248 249 251 252 253 254 255 255 257 258 259 260 261 261 262 262 263 263 264 264 265 266 266 267 268 269 269 270 271 272 272 272 272 273 273 273 273 274 274 275 276 277 277 278 278 279 279 280 280 281 282 283 284 285 286 287 288 290 291 293
236 237 239 241 241 243 243 244 247 250 251 249 250 253 256 256 253 250 247 246 247 248 251 253 253 251 248 248 250 252 252 253 254 255 257 258 259 261 262 262 263 263 264 264 265 266 267 267 268 268 269 270 271 271 272 272 272 273 273 273 273 273 273 274 274 275 276 276 276 277 278 278 279 280 281 282 283 284 285 286 288 289 290 292 293 294
240 243 245 246 247 249 250 250 252 252 250 249 249 251 253 253 251 248 247 246 245 246 249 252 254 254 252 250 250 252 253 254 255 255 257 258 259 260 261 262 264 264 265 266 267 267 268 268 269 270 270 271 271 271 271 271 271 272 272 272 273 273 274 274 275 275 276 276 277 277 278 279 280 281 282 283 284 285 286 287 289 290 291 293 294 295
245 247 248 248 250 251 251 250 250 250 250 250 250 251 252 253 252 251 250 248 247 247 248 250 252 254 255 254 252 252 253 254 255 256 256 257 258 260 261 262 264 265 266 267 267 268 268 269 269 270 270 270 271 271 271 271 271 272 272 272 273 273 274 274 275 275 276 276 277 278 279 280 281 281 282 283 284 285 286 288 289 291 293 294 295 296
245 245 247 247 248 249 248 248 249 249 249 249 251 253 254 255 255 253 252 250 249 247 247 248 249 251 253 253 252 252 252 253 254 256 256 257 258 259 260 261 263 264 264 265 266 267 267 268 268 269 269 270 270 270 271 271 271 272 272 272 273 273 274 274 275 275 276 277 278 278 279 279 280 280 281 283 284 286 288 290 292 293 294 294 295 295
244 245 246 247 248 248 247 247 248 248 248 247 249 251 253 255 256 255 253 252 250 248 248 247 248 249 251 252 253 252 251 251 252 254 255 257 258 259 260 261 262 263 263 264 265 265 266 266 267 267 268 268 269 269 270 270 270 271 271 272 272 273 274 275 275 276 277 278 278 278 278 279 280 281 283 285 287 289 291 292 293 293 294 294 295 295
242 243 244 245 246 246 246 247 248 248 248 248 248 250 253 255 257 257 257 256 254 252 250 249 249 249 250 252 253 254 254 253 253 253 254 255 257 258 259 260 261 262 263 264 265 265 266 266 266 267 267 268 268 268 269 269 270 270 271 272 273 274 275 276 277 277 277 277 277 278 278 280 281 283 286 288 289 291 292 292 293 293 294 294 294 295
240 241 242 243 244 245 246 248 249 249 249 249 249 250 251 254 256 257 257 257 256 255 254 253 252 251 252 252 254 255 257 257 257 256 256 256 256 257 258 258 259 260 261 262 263 264 265 266 267 267 268 268 268 269 269 270 270 272 273 274 275 276 276 276 276 276 276 277 277 279 280 282 284 286 287 288 290 290 291 292 293 293 294 294 295 296
240 241 242 244 246 246 247 249 250 250 250 250 249 249 250 252 254 255 256 256 257 256 256 256 255 255 255 255 256 257 258 259 260 260 259 258 258 257 258 258 258 259 259 260 261 262 263 264 265 266 267 268 269 270 271 273 274 275 276 276 276 276 276 276 276 277 277 278 279 281 282 284 285 286 287 288 289 290 291 292 293 294 295 295 296 296
Height
5769 5771 5775 5782 5788 5791 5792 5793 5796 5799 5802 5804 5808 5812 5815 5819 5822 5825 5828 5831 5835 5838 5841 5844 5847 5849 5850 5853 5855 5857 5858 5860 5862 5865 5868 5870 5872 5874 5875 5877 5878 5879 5880 5882 5884 5884 5885 5886 5887 5888 5889 5890 5891 5891 5891 5892 5892 5892 5893 5894 5894 5895 5895 5895 5895 5895 5895 5895 5895 5895 5894 5894 5893 5893 5893 5892 5892 5892 5891 5891 5891 5890 5890 5889 5888 5888
5766 5769 5777 5784 5787 5787 5788 5789 5792 5795 5798 5801 5804 5808 5812 5816 5820 5823 5826 5829 5832 5835 5838 5840 5842 5844 5846 5849 5852 5853 5855 5858 5861 5864 5866 5867 5869 5871 5873 5875 5876 5877 5878 5880 5882 5882 5883 5884 5885 5886 5887 5888 5888 5889 5890 5890 5890 5890 5891 5892 5892 5893 5893 5893 5893 5893 5893 5893 5893 5893 5892 5892 5892 5891 5891 5890 5890 5890 5889 5889 5889 5888 5888 5887 5886 5885
5764 5771 5778 5781 5780 5781 5782 5784 5787 5791 5794 5797 5800 5804 5807 5812 5817 5820 5823 5826 5829 5832 5835 5838 5840 5842 5844 5846 5848 5850 5854 5857 5859 5860 5862 5863 5865 5868 5871 5872 5873 5875 5876 5878 5879 5880 5881 5881 5883 5884 5885 5885 5886 5887 5888 5888 5889 5889 5889 5889 5890 5891 5891 5891 5891 5890 5890 5890 5890 5890 5890 5890 5890 5889 5889 5889 5888 5888 5887 5887 5886 5886 5885 5885 5884 5883
5763 5771 5774 5773 5773 5775 5777 5779 5782 5785 5789 5792 5796 5800 5805 5809 5813 5816 5820 5823 5826 5829 5832 5834 5837 5839 5841 5842 5843 5846 5851 5854 5855 5857 5858 5860 5863 5865 5867 5869 5871 5873 5874 5876 5877 5878 5879 5880 5881 5882 5882 5883 5883 5884 5885 5886 5887 5887 5887 5887 5888 5888 5888 5889 5888 5888 5888 5888 5888 5888 5888 5888 5888 5887 5887 5886 5886 5885 5885 5884 5884 5883 5883 5882 5881 5880
5760 5765 5766 5766 5768 5771 5772 5774 5776 5779 5784 5788 5792 5797 5802 5806 5810 5813 5817 5820 5823 5826 5829 5831 5832 5834 5836 5837 5840 5844 5848 5851 5852 5854 5855 5858 5861 5862 5864 5867 5870 5871 5872 5873 5875 5876 5877 5878 5879 5879 5880 5881 5881 5882 5883 5884 5884 5884 5884 5885 5885 5885 5886 5886 5886 5885 5885 5885 5885 5885 5885 5885 5885 5885 5885 5884 5884 5883 5882 5882 5881 5881 5880 5879 5878 5877
5754 5757 5759 5761 5764 5766 5767 5769 5771 5775 5781 5785 5789 5794 5799 5803 5806 5809 5812 5815 5818 5821 5825 5827 5827 5830 5833 5834 5838 5842 5845 5847 5849 5850 5853 5856 5858 5859 5862 5865 5867 5868 5869 5871 5873 5874 5875 5876 5877 5877 5878 5878 5879 5879 5880 5881 5882 5882 5882 5882 5882 5882 5883 5883 5883 5883 5883 5883 5883 5882 5883 5882 5882 5882 5882 5881 5881 5880 5880 5879 5879 5878 5877 5876 5875 5874
5749 5752 5754 5757 5759 5761 5762 5765 5769 5773 5777 5781 5786 5792 5796 5798 5802 5805 5809 5811 5813 5816 5821 5823 5823 5827 5831 5831 5835 5839 5841 5843 5845 5846 5850 5853 5854 5857 5860 5862 5864 5865 5867 5868 5870 5871 5872 5873 5874 5875 5875 5876 5876 5876 5877 5878 5879 5879 5879 5880 5880 5880 5880 5880 5880 5880 5880 5880 5880 5880 5880 5880 5879 5879 5878 5878 5878 5877 5876 5876 5875 5875 5874 5873 5872 5871
5745 5748 5750 5753 5755 5757 5759 5763 5768 5771 5774 5780 5785 5789 5792 5795 5798 5802 5806 5808 5810 5814 5817 5819 5820 5823 5826 5828 5831 5834 5836 5839 5841 5843 5847 5849 5851 5855 5858 5859 5861 5863 5864 5865 5867 5868 5869 5870 5871 5872 5873 5873 5873 5873 5874 5875 5875 5876 5876 5876 5877 5877 5877 5877 5877 5877 5877 5877 5878 5877 5877 5877 5876 5876 5875 5875 5874 5873 5873 5872 5872 5871 5870 5870 5868 5867
5740 5743 5747 5750 5752 5755 5759 5764 5767 5769 5773 5778 5782 5784 5788 5792 5794 5799 5803 5805 5807 5809 5811 5815 5816 5817 5820 5825 5827 5829 5832 5836 5838 5841 5845 5847 5850 5853 5854 5856 5858 5859 5861 5862 5863 5865 5866 5867 5868 5869 5870 5870 5870 5871 5871 5871 5872 5872 5873 5873 5873 5873 5873 5873 5874 5874 5874 5874 5875 5875 5874 5874 5873 5872 5872 5872 5871 5870 5870 5869 5868 5867 5867 5866 5865 5864
5735 5740 5744 5747 5750 5755 5759 5761 5762 5765 5770 5775 5776 5780 5784 5787 5790 5795 5798 5801 5803 5803 5806 5811 5813 5812 5816 5822 5824 5825 5829 5833 5837 5840 5843 5845 5846 5848 5850 5852 5854 5856 5858 5859 5860 5861 5863 5864 5865 5866 5867 5867 5867 5868 5868 5869 5869 5870 5870 5870 5870 5870 5870 5870 5870 5871 5871 5871 5871 5871 5871 5870 5870 5869 5869 5868 5868 5867 5866 5865 5865 5864 5863 5862 5861 5859
5732 5736 5740 5744 5749 5753 5755 5756 5758 5761 5765 5768 5770 5775 5779 5782 5786 5790 5793 5797 5797 5798 5803 5809 5809 5809 5811 5817 5821 5822 5825 5830 5834 5837 5839 5841 5842 5844 5847 5849 5851 5853 5854 5856 5857 5858 5860 5861 5862 5862 5863 5864 5864 5865 5865 5866 5866 5867 5867 5867 5867 5867 5867 5867 5867 5868 5868 5868 5868 5868 5867 5867 5866 5866 5865 5865 5864 5863 5863 5862 5861 5860 5859 5858 5856 5855
5729 5733 5737 5741 5745 5748 5750 5751 5753 5756 5759 5762 5765 5770 5774 5777 5780 5784 5788 5790 5790 5792 5801 5804 5805 5804 5805 5812 5819 5820 5822 5826 5829 5832 5834 5836 5838 5840 5843 5845 5847 5848 5850 5852 5854 5856 5857 5858 5859 5859 5860 5860 5861 5861 5862 5862 5863 5863 5864 5864 5864 5864 5864 5864 5865 5865 5865 5865 5865 5865 5864 5864 5863 5862 5862 5861 5860 5859 5859 5858 5857 5856 5855 5853 5852 5850
5727 5731 5734 5738 5741 5743 5745 5746 5747 5750 5753 5756 5759 5763 5768 5770 5774 5778 5781 5784 5786 5791 5797 5799 5800 5799 5799 5808 5815 5817 5819 5822 5824 5828 5830 5833 5835 5837 5839 5841 5842 5844 5846 5849 5851 5853 5854 5855 5855 5856 5856 5857 5857 5858 5858 5859 5859 5860 5860 5860 5861 5861 5861 5861 5862 5862 5862 5862 5862 5861 5861 5860 5859 5859 5858 5857 5856 5855 5854 5853 5852 5851 5850 5849 5847 5846
5724 5727 5731 5734 5736 5739 5740 5742 5743 5746 5749 5752 5755 5758 5761 5764 5767 5772 5776 5780 5784 5787 5791 5794 5795 5794 5795 5803 5811 5814 5816 5819 5821 5825 5827 5830 5832 5834 5836 5837 5839 5841 5844 5846 5848 5849 5850 5851 5852 5852 5853 5853 5854 5854 5855 5856 5856 5857 5857 5857 5857 5857 5858 5858 5858 5858 5858 5858 5858 5857 5857 5856 5855 5854 5854 5853 5852 5851 5850 5849 5848 5847 5845 5844 5843 5841
5721 5724 5728 5731 5733 5735 5737 5739 5742 5746 5748 5750 5753 5755 5757 5760 5764 5769 5774 5778 5781 5784 5786 5789 5789 5789 5790 5798 5806 5811 5813 5816 5819 5821 5824 5827 5829 5830 5832 5834 5836 5838 5840 5842 5843 5844 5846 5847 5848 5849 5849 5850 5850 5851 5851 5852 5853 5853 5853 5853 5853 5854 5854 5854 5854 5854 5854 5854 5853 5853 5852 5852 5851 5850 5849 5848 5847 5846 5845 5844 5843 5842 5840 5839 5838 5836
5718 5721 5725 5727 5730 5731 5733 5735 5738 5740 5742 5744 5747 5750 5752 5757 5763 5769 5773 5777 5780 5781 5782 5784 5785 5786 5788 5794 5803 5808 5810 5813 5816 5818 5821 5823 5825 5826 5828 5830 5832 5834 5836 5837 5838 5840 5841 5842 5844 5845 5846 5846 5847 5847 5847 5848 5848 5849 5849 5849 5850 5850 5850 5851 5850 5850 5850 5849 5849 5848 5848 5847 5846 5845 5844 5843 5842 5842 5840 5839 5838 5837 5836 5834 5833 5831
5715 5718 5720 5722 5724 5726 5729 5731 5732 5734 5735 5738 5741 5744 5749 5755 5760 5765 5769 5773 5776 5776 5777 5780 5783 5785 5786 5791 5799 5805 5807 5810 5813 5815 5817 5819 5821 5823 5824 5826 5828 5829 5831 5832 5834 5835 5836 5838 5839 5840 5841 5842 5843 5844 5844 5844 5844 5845 5845 5846 5846 5846 5846 5846 5846 5846 5846 5845 5845 5844 5844 5843 5842 5841 5840 5839 5838 5837 5836 5835 5834 5832 5831 5829 5828 5826
5712 5714 5716 5717 5719 5721 5724 5726 5727 5729 5731 5733 5736 5741 5747 5750 5753 5759 5763 5765 5768 5770 5771 5775 5778 5781 5783 5786 5794 5800 5803 5806 5809 5811 5813 5815 5817 5819 5821 5822 5823 5824 5826 5827 5829 5831 5832 5833 5834 5836 5837 5838 5839 5839 5840 5840 5840 5841 5841 5842 5842 5842 5842 5842 5842 5842 5841 5841 5840 5840 5839 5838 5838 5837 5836 5835 5834 5832 5831 5830 5828 5827 5826 5824 5823 5821
5707 5709 5711 5713 5715 5717 5719 5720 5722 5724 5726 5729 5734 5739 5742 5744 5748 5753 5756 5759 5763 5765 5767 5770 5773 5776 5778 5782 5789 5796 5800 5802 5804 5807 5810 5812 5814 5815 5816 5817 5818 5819 5821 5822 5824 5826 5827 5829 5830 5831 5832 5833 5834 5834 5835 5836 5836 5837 5837 5838 5838 5838 5838 5838 5837 5837 5837 5836 5836 5835 5835 5834 5833 5832 5831 5830 5829 5827 5826 5825 5823 5822 5821 5819 5818 5816
5702 5704 5706 5708 5711 5713 5714 5716 5718 5721 5723 5727 5730 5733 5736 5741 5745 5748 5752 5756 5760 5761 5763 5766 5768 5772 5776 5780 5785 5792 5797 5798 5800 5803 5805 5807 5809 5810 5811 5812 5814 5815 5817 5818 5820 5822 5823 5824 5825 5826 5827 5828 5829 5830 5830 5831 5832 5832 5833 5833 5834 5834 5833 5833 5833 5833 5832 5832 5832 5831 5830 5829 5828 5827 5826 5825 5823 5822 5821 5819 5818 5817 5815 5814 5812 5811
5699 5700 5702 5704 5706 5708 5711 5713 5716 5718 5720 5723 5726 5729 5732 5737 5740 5744 5748 5753 5755 5758 5760 5761 5763 5769 5775 5779 5782 5788 5792 5794 5796 5799 5800 5802 5804 5806 5807 5809 5810 5812 5813 5814 5816 5817 5818 5819 5820 5821 5822 5823 5824 5825 5826 5827 5827 5828 5829 5829 5829 5829 5829 5829 5828 5828 5828 5827 5827 5826 5825 5824 5823 5822 5820 5819 5818 5817 5815 5814 5813 5811 5810 5808 5806 5805
5695 5697 5698 5700 5702 5705 5708 5710 5712 5714 5717 5720 5723 5726 5729 5733 5736 5739 5743 5747 5751 5753 5754 5756 5759 5765 5772 5776 5779 5783 5787 5789 5792 5794 5796 5798 5800 5801 5803 5804 5806 5808 5809 5810 5811 5812 5814 5815 5815 5816 5817 5818 5819 5820 5821 5822 5823 5823 5824 5824 5824 5824 5824 5824 5823 5823 5823 5822 5822 5821 5820 5819 5817 5816 5815 5814 5813 5811 5810 5809 5807 5806 5804 5802 5801 5799
5692 5693 5694 5697 5700 5702 5705 5707 5709 5712 5714 5717 5719 5722 5726 5728 5731 5734 5738 5744 5747 5748 5749 5752 5756 5761 5768 5773 5776 5779 5782 5785 5788 5790 5791 5793 5795 5796 5798 5800 5802 5803 5804 5806 5807 5808 5809 5810 5811 5811 5813 5814 5815 5816 5817 5818 5818 5819 5819 5819 5818 5818 5818 5818 5818 5818 5817 5817 5816 5815 5814 5813 5812 5811 5810 5808 5807 5806 5805 5803 5802 5800 5799 5797 5795 5793
5688 5689 5691 5693 5696 5698 5701 5704 5707 5709 5711 5712 5715 5719 5721 5724 5728 5731 5734 5739 5741 5742 5746 5749 5752 5758 5765 5770 5773 5775 5777 5781 5783 5785 5787 5788 5789 5791 5793 5795 5797 5798 5799 5801 5802 5803 5804 5805 5806 5807 5808 5809 5810 5811 5812 5813 5813 5813 5813 5813 5813 5813 5813 5813 5813 5812 5812 5811 5810 5809 5808 5807 5806 5805 5804 5803 5802 5801 5799 5798 5796 5795 5793 5791 5789 5787
5684 5685 5687 5689 5691 5693 5696 5698 5701 5703 5706 5708 5712 5715 5718 5721 5724 5725 5729 5733 5734 5738 5743 5744 5748 5755 5761 5764 5768 5770 5773 5776 5778 5780 5782 5783 5784 5786 5788 5790 5791 5793 5794 5795 5796 5798 5799 5800 5801 5802 5803 5805 5806 5807 5807 5808 5808 5808 5808 5808 5808 5808 5808 5808 5808 5807 5806 5805 5804 5803 5802 5801 5801 5800 5799 5798 5796 5795 5794 5792 5791 5789 5787 5785 5783 5781
5681 5683 5685 5686 5688 5690 5693 5695 5697 5698 5699 5701 5705 5709 5713 5717 5719 5721 5725 5727 5729 5734 5737 5739 5745 5751 5755 5759 5762 5766 5769 5771 5773 5775 5776 5778 5779 5781 5783 5784 5786 5787 5788 5790 5791 5792 5793 5795 5796 5798 5799 5800 5801 5802 5802 5802 5802 5802 5802 5802 5803 5803 5803 5802 5802 5801 5800 5799 5798 5797 5797 5796 5795 5794 5793 5792 5791 5789 5788 5786 5785 5783 5781 5779 5777 5775
5678 5679 5682 5684 5687 5690 5694 5696 5698 5700 5699 5700 5703 5707 5710 5713 5716 5719 5720 5721 5726 5731 5732 5736 5743 5747 5751 5755 5758 5761 5764 5766 5768 5770 5772 5773 5775 5776 5778 5779 5780 5782 5783 5785 5786 5787 5789 5790 5791 5793 5794 5795 5796 5796 5796 5796 5796 5797 5797 5797 5798 5798 5797 5796 5796 5795 5794 5793 5792 5792 5791 5791 5790 5789 5787 5786 5785 5783 5782 5780 5778 5776 5774 5773 5771 5769
5674 5676 5679 5681 5683 5686 5690 5693 5696 5699 5700 5702 5705 5707 5709 5712 5714 5715 5715 5719 5725 5726 5726 5734 5740 5742 5748 5752 5753 5756 5759 5761 5764 5765 5766 5768 5770 5771 5773 5774 5775 5776 5777 5779 5780 5782 5784 5785 5787 5788 5788 5789 5789 5790 5790 5791 5791 5792 5792 5792 5792 5792 5791 5790 5789 5789 5788 5788 5787 5786 5786 5785 5784 5783 5782 5780 5779 5777 5775 5774 5772 5770 5768 5766 5764 5762
5671 5673 5676 5678 5680 5682 5685 5688 5691 5693 5696 5698 5701 5704 5707 5710 5711 5713 5716 5721 5724 5722 5726 5736 5739 5740 5746 5749 5750 5752 5755 5756 5758 5759 5761 5763 5765 5766 5768 5769 5770 5770 5772 5774 5776 5778 5779 5780 5781 5782 5782 5783 5783 5784 5785 5786 5786 5786 5786 5786 5786 5785 5785 5784 5783 5783 5783 5782 5782 5781 5780 5779 5778 5777 5775 5774 5772 5770 5769 5767 5766 5764 5762 5760 5758 5756
5667 5669 5671 5674 5677 5679 5682 5685 5687 5690 5691 5693 5695 5698 5701 5703 5706 5709 5713 5718 5720 5720 5727 5734 5735 5736 5741 5745 5746 5748 5748 5750 5752 5754 5757 5760 5761 5762 5763 5763 5764 5765 5767 5770 5772 5773 5774 5774 5774 5775 5776 5777 5778 5779 5780 5780 5780 5780 5780 5780 5779 5779 5779 5778 5778 5778 5777 5776 5776 5775 5774 5773 5771 5770 5769 5767 5765 5764 5762 5761 5759 5757 5755 5753 5751 5749
5663 5665 5667 5670 5673 5675 5678 5681 5683 5686 5687 5689 5691 5693 5696 5698 5700 5703 5707 5711 5712 5714 5721 5725 5725 5729 5736 5740 5742 5743 5744 5746 5748 5750 5754 5756 5756 5757 5757 5758 5759 5760 5763 5765 5766 5767 5768 5768 5769 5770 5771 5772 5772 5773 5774 5774 5774 5774 5773 5773 5773 5773 5773 5772 5772 5772 5771 5770 5770 5769 5767 5766 5765 5763 5762 5760 5759 5757 5756 5754 5752 5750 5748 5746 5744 5741
5659 5661 5663 5667 5669 5671 5675 5677 5680 5682 5684 5684 5685 5688 5691 5694 5697 5699 5702 5705 5707 5710 5716 5717 5719 5728 5736 5738 5739 5740 5741 5742 5744 5747 5749 5750 5750 5750 5751 5752 5754 5756 5758 5759 5760 5761 5762 5763 5763 5764 5765 5766 5766 5767 5767 5767 5767 5767 5767 5767 5766 5767 5767 5767 5766 5766 5765 5764 5763 5762 5761 5760 5758 5757 5755 5754 5752 5751 5749 5747 5745 5743 5741 5739 5736 5734
5656 5658 5661 5664 5666 5669 5672 5675 5677 5679 5678 5678 5682 5686 5689 5692 5694 5697 5699 5702 5705 5708 5712 5714 5720 5728 5733 5734 5736 5736 5735 5736 5740 5742 5742 5741 5742 5743 5744 5746 5749 5751 5752 5753 5754 5755 5756 5757 5757 5758 5759 5760 5760 5761 5761 5761 5761 5760 5760 5761 5761 5761 5761 5760 5760 5759 5758 5757 5756 5755 5754 5753 5752 5750 5748 5747 5745 5744 5742 5740 5738 5736 5733 5731 5728 5725
5654 5657 5659 5662 5664 5666 5669 5672 5674 5673 5672 5676 5682 5686 5687 5689 5692 5694 5696 5700 5703 5705 5708 5712 5717 5722 5724 5727 5730 5730 5729 5730 5733 5734 5733 5733 5734 5735 5738 5741 5743 5745 5747 5747 5748 5749 5750 5751 5751 5752 5753 5753 5753 5753 5753 5754 5754 5754 5754 5754 5754 5754 5754 5754 5753 5752 5752 5751 5750 5749 5747 5746 5745 5743 5742 5740 5739 5737 5735 5733 5731 5728 5726 5723 5720 5717
5653 5655 5657 5659 5661 5662 5664 5666 5666 5666 5670 5676 5680 5682 5684 5686 5689 5691 5693 5696 5698 5700 5702 5706 5710 5713 5717 5721 5723 5724 5723 5723 5723 5725 5726 5726 5727 5730 5732 5735 5737 5739 5740 5740 5742 5744 5745 5745 5745 5746 5746 5746 5746 5746 5746 5747 5748 5748 5748 5748 5748 5748 5747 5747 5746 5745 5744 5744 5742 5741 5740 5739 5738 5736 5735 5733 5731 5730 5728 5725 5723 5721 5718 5715 5712 5709
5647 5649 5651 5653 5655 5657 5658 5659 5660 5665 5670 5673 5675 5678 5681 5683 5685 5686 5687 5690 5693 5695 5697 5701 5705 5709 5711 5714 5717 5718 5717 5716 5715 5717 5720 5721 5723 5725 5728 5730 5731 5732 5733 5735 5737 5738 5738 5739 5739 5739 5739 5739 5739 5740 5740 5741 5741 5741 5741 5741 5741 5741 5740 5740 5739 5738 5737 5736 5735 5734 5733 5731 5730 5729 5727 5726 5724 5722 5720 5718 5715 5712 5710 5707 5704 5700
5642 5644 5646 5647 5649 5652 5653 5655 5659 5663 5666 5668 5671 5675 5679 5680 5681 5682 5683 5686 5689 5692 5694 5698 5702 5704 5706 5709 5711 5710 5709 5708 5707 5712 5717 5719 5719 5721 5723 5724 5724 5725 5727 5728 5729 5730 5731 5731 5732 5732 5732 5732 5733 5733 5734 5734 5734 5734 5735 5734 5734 5734 5733 5733 5732 5731 5730 5729 5728 5727 5726 5724 5723 5721 5719 5718 5716 5714 5712 5709 5707 5704 5702 5698 5695 5692
5639 5641 5643 5645 5646 5649 5651 5654 5657 5658 5661 5665 5669 5672 5674 5676 5678 5678 5677 5679 5684 5688 5690 5694 5697 5699 5700 5702 5702 5701 5701 5699 5701 5710 5716 5715 5713 5715 5716 5716 5717 5719 5720 5721 5721 5723 5724 5724 5725 5725 5725 5726 5726 5727 5727 5727 5727 5727 5727 5727 5727 5727 5726 5725 5724 5723 5722 5721 5720 5719 5718 5716 5715 5713 5712 5710 5708 5706 5703 5701 5699 5696 5694 5691 5687 5684
5635 5638 5640 5642 5643 5645 5647 5649 5651 5654 5659 5663 5666 5668 5668 5670 5673 5674 5671 5674 5681 5686 5687 5688 5691 5692 5692 5693 5693 5693 5693 5693 5698 5708 5712 5706 5705 5706 5707 5709 5711 5712 5713 5714 5715 5716 5717 5717 5718 5718 5719 5720 5720 5720 5720 5720 5720 5720 5720 5720 5720 5719 5718 5717 5716 5715 5714 5713 5712 5710 5709 5708 5707 5705 5703 5701 5699 5697 5695 5693 5691 5688 5686 5683 5679 5676
5631 5633 5635 5636 5638 5641 5643 5644 5646 5651 5655 5658 5661 5663 5663 5665 5667 5667 5667 5672 5678 5682 5683 5683 5682 5683 5684 5685 5686 5687 5688 5691 5696 5700 5700 5697 5698 5699 5700 5702 5704 5705 5706 5708 5708 5709 5710 5711 5712 5712 5712 5713 5713 5713 5713 5713 5713 5713 5713 5712 5712 5711 5710 5709 5708 5706 5705 5704 5703 5702 5701 5700 5698 5697 5695 5693 5691 5689 5687 5685 5683 5680 5678 5675 5672 5668
5628 5629 5630 5633 5635 5637 5639 5641 5643 5648 5652 5654 5656 5657 5658 5659 5658 5659 5665 5670 5673 5677 5678 5676 5674 5677 5679 5680 5681 5682 5684 5686 5689 5689 5689 5690 5691 5692 5693 5695 5696 5698 5700 5701 5701 5702 5703 5703 5704 5705 5705 5705 5705 5705 5705 5705 5705 5705 5704 5704 5703 5702 5701 5700 5699 5698 5697 5696 5695 5694 5693 5691 5690 5688 5687 5685 5683 5681 5679 5677 5675 5672 5670 5667 5664 5661
5623 5625 5627 5629 5632 5634 5636 5638 5640 5644 5649 5651 5650 5649 5651 5652 5652 5657 5664 5666 5665 5668 5669 5666 5668 5673 5674 5674 5675 5677 5678 5679 5681 5682 5682 5682 5683 5685 5686 5687 5689 5691 5692 5692 5693 5694 5695 5695 5696 5696 5697 5697 5697 5697 5697 5697 5697 5697 5696 5695 5695 5694 5693 5691 5690 5690 5689 5688 5687 5686 5685 5683 5682 5680 5678 5677 5675 5673 5671 5669 5667 5665 5662 5659 5657 5654
5619 5620 5622 5625 5628 5630 5631 5633 5636 5643 5648 5648 5645 5642 5644 5648 5652 5656 5658 5658 5659 5661 5660 5659 5662 5666 5668 5668 5669 5670 5672 5674 5675 5676 5676 5676 5677 5678 5678 5680 5681 5683 5684 5685 5685 5686 5686 5687 5688 5688 5689 5689 5689 5689 5689 5689 5689 5688 5688 5687 5686 5685 5684 5683 5683 5682 5681 5680 5679 5678 5676 5675 5673 5672 5670 5668 5667 5665 5663 5661 5659 5657 5654 5652 5649 5646
5613 5615 5618 5621 5623 5623 5625 5628 5635 5641 5643 5643 5641 5639 5639 5644 5648 5650 5650 5652 5655 5655 5654 5654 5655 5658 5662 5664 5664 5664 5666 5667 5668 5670 5670 5670 5671 5671 5672 5673 5674 5675 5676 5677 5677 5678 5679 5679 5679 5680 5680 5680 5680 5681 5681 5681 5681 5680 5680 5679 5678 5677 5677 5676 5675 5674 5673 5672 5671 5669 5668 5667 5665 5664 5662 5660 5659 5657 5655 5653 5651 5649 5646 5644 5641 5638
5609 5613 5615 5617 5618 5618 5622 5627 5632 5634 5634 5635 5635 5633 5633 5636 5639 5642 5644 5647 5649 5650 5650 5650 5649 5651 5655 5658 5659 5660 5660 5661 5662 5664 5664 5664 5665 5665 5666 5666 5666 5667 5669 5669 5670 5671 5671 5671 5671 5671 5672 5672 5673 5673 5673 5673 5673 5672 5672 5671 5670 5669 5669 5668 5667 5666 5665 5664 5663 5661 5660 5658 5657 5656 5654 5652 5650 5649 5647 5645 5643 5641 5638 5636 5634 5631
5607 5610 5610 5612 5613 5614 5618 5623 5625 5626 5627 5628 5628 5627 5627 5628 5631 5635 5638 5640 5643 5645 5646 5645 5645 5646 5647 5650 5654 5655 5655 5656 5657 5657 5658 5659 5659 5659 5660 5660 5660 5661 5661 5662 5663 5663 5663 5664 5664 5664 5664 5664 5665 5665 5665 5665 5665 5665 5664 5664 5662 5662 5661 5660 5659 5658 5657 5656 5654 5653 5652 5651 5649 5648 5646 5644 5643 5641 5639 5637 5635 5632 5630 5628 5626 5623
5602 5604 5604 5605 5606 5608 5612 5617 5619 5619 5620 5621 5621 5620 5620 5621 5623 5627 5629 5632 5635 5638 5639 5640 5640 5640 5640 5642 5645 5648 5649 5650 5650 5650 5651 5652 5653 5653 5654 5654 5654 5655 5654 5655 5655 5655 5656 5656 5656 5656 5657 5657 5657 5657 5657 5657 5657 5657 5656 5656 5655 5654 5653 5652 5651 5650 5649 5648 5647 5645 5644 5643 5641 5640 5638 5636 5635 5633 5631 5629 5626 5624 5622 5620 5617 5615
5597 5597 5597 5599 5600 5602 5606 5610 5611 5611 5613 5614 5614 5614 5613 5613 5615 5617 5620 5623 5626 5629 5632 5633 5634 5634 5634 5635 5636 5639 5641 5643 5644 5644 5645 5645 5646 5647 5648 5648 5648 5648 5648 5648 5648 5648 5648 5649 5649 5649 5649 5649 5649 5650 5650 5650 5649 5649 5648 5648 5647 5646 5645 5644 5643 5642 5641 5640 5639 5637 5636 5634 5633 5632 5630 5628 5626 5624 5622 5620 5618 5615 5613 5611 5609 5606
5589 5589 5591 5593 5594 5596 5600 5603 5604 5604 5606 5607 5608 5608 5607 5606 5607 5609 5611 5614 5617 5620 5623 5625 5627 5628 5628 5628 5629 5631 5632 5634 5637 5638 5639 5639 5640 5640 5640 5641 5641 5641 5641 5641 5640 5640 5641 5640 5641 5641 5641 5641 5642 5642 5642 5642 5641 5641 5640 5640 5639 5638 5637 5636 5635 5634 5633 5632 5631 5629 5628 5626 5625 5623 5621 5619 5618 5615 5613 5611 5609 5607 5604 5602 5600 5597
5580 5582 5584 5586 5586 5589 5594 5596 5597 5597 5599 5601 5602 5602 5601 5601 5601 5602 5604 5606 5608 5611 5614 5616 5618 5620 5621 5622 5623 5624 5625 5627 5628 5630 5632 5632 5633 5633 5633 5634 5634 5634 5634 5634 5633 5633 5633 5633 5633 5633 5633 5633 5633 5633 5634 5634 5633 5633 5633 5632 5631 5631 5630 5628 5628 5626 5625 5624 5623 5621 5620 5618 5616 5615 5613 5612 5610 5607 5605 5603 5600 5598 5595 5592 5589 5586
5574 5576 5578 5579 5581 5586 5589 5590 5589 5590 5592 5594 5595 5595 5594 5595 5595 5596 5597 5599 5601 5603 5605 5607 5609 5611 5613 5615 5617 5618 5619 5620 5620 5622 5623 5623 5624 5625 5626 5626 5626 5627 5627 5627 5627 5627 5626 5626 5626 5626 5626 5626 5626 5626 5626 5626 5625 5625 5625 5624 5623 5622 5621 5621 5620 5618 5617 5616 5615 5613 5612 5610 5609 5607 5605 5603 5601 5599 5596 5593 5591 5588 5585 5582 5579 5576